Location: Newark
(38.6492°N, 88.9193°W)
Time: 18:35:03
(UTC+00:00)

LightSail 2 - Pass Details

Date: 15 November 2019
Orbit: 696 x 730 km, 24.0° (Epoch: 14 December)

Event Time Altitude Azimuth Distance (km) Brightness Sun altitude
Exits shadow 09:50:04 14° 157° (SSE) 1,962 7.6 -32.7°
Drops below altitude 10° 09:51:28 10° 143° (SE) 2,211 8.0 -32.4°
Sets 09:54:50 0° 122° (ESE) 3,134 9.3 -31.8°
